Zurück zum Katalog

STARLINK-4598

AktivKommunikationVLEO
NORAD 53630·PAYLOAD·🇺🇸 United States

Gestartet Aug 28, 2022 von Cape Canaveral Space Force Station

Loading…

Nächste Überflüge (nächste 24 Stunden)

TLE

AktuellSource: CelesTrak SupGP

Epoche: Sep 15, 2026, 02:16 UTC

1 53630C 22104AU  26258.09493056  .00730850  00000+0  16461-1 0  2584
2 53630  53.1600  82.7532 0001090  78.5440  90.8886 15.42333799    15

Verfolge STARLINK-4598 in Echtzeit mit AllMySat

Download on the App Store